ISOI (RS19S SXC3-219)

Last updated on Wed Sep 13 2023 00:03:03 GMT+0000 (Coordinated Universal Time)

1 53381U 22096M 23255.55754684 .00032023 00000+0 77843-3 0 9991 2 53381 97.4036 162.5668 0005757 100.3268 259.8628 15.40907317 61115

Satellite not in orbit

ISOI (RS19S SXC3-219)